Lapse_Rate
7.8 6.5 6.5 6.5 6.5 6.5 6.5 6.5 6.5 6.5 6.5 6.5 6.5 6.5 6.5 7.5 7.6 7.6 7.9 8.2 8.4 8.6 9.2 9.5 9.5 9.7 9.8 9.5 7.4 7.3 8.6 6.9 7.0 6.6 3.7 2.7 1.9 3.4 5.5 5.8 6.6 5.8 6.0 6.6
6.5 6.5 6.5 6.9 6.5 6.5 6.5 6.5 6.5 6.5 6.5 6.5 6.5 6.5 6.5 7.2 7.3 7.7 7.8 8.0 8.3 8.6 9.0 9.2 9.4 9.5 9.5 9.6 9.6 8.7 8.6 9.3 9.2 8.5 8.2 4.3 1.9 2.5 3.5 5.6 5.5 5.6 5.4 5.7
6.5 6.5 7.0 6.5 6.5 6.5 6.5 6.5 6.5 6.5 6.5 6.5 6.5 6.5 6.5 6.9 7.4 7.8 8.0 8.3 8.5 8.6 8.7 9.0 9.2 9.4 9.6 9.5 9.6 9.8 9.8 9.5 9.3 7.3 9.6 9.1 6.3 4.7 4.2 4.3 5.2 5.4 5.9 5.9
6.5 7.0 6.5 6.5 6.5 6.5 6.5 6.5 6.5 6.5 6.5 6.5 6.5 6.5 6.5 6.5 6.5 7.1 7.6 8.1 8.3 8.6 8.9 9.1 9.2 9.3 9.5 9.5 9.9 9.9 10.0 9.9 9.3 7.1 8.5 7.8 9.4 7.9 5.9 3.3 2.9 3.7 4.9 5.4
6.5 6.5 6.5 6.5 6.5 6.5 6.5 6.5 6.5 6.5 6.5 6.5 6.5 6.5 6.5 6.5 6.5 6.5 7.3 7.9 8.3 8.7 8.9 9.0 9.2 9.4 9.7 9.8 9.8 9.8 10.0 9.9 9.9 9.0 8.1 9.2 8.8 8.2 4.5 5.2 3.8 3.9 2.4 5.3
6.5 7.5 6.8 6.6 6.7 6.7 6.8 6.5 6.5 6.5 6.5 6.5 6.5 6.5 6.5 6.5 6.5 6.5 7.3 7.8 8.2 8.6 8.8 9.1 9.3 9.5 9.6 9.7 9.7 9.9 9.8 9.9 9.9 9.8 9.7 9.2 8.8 7.4 5.8 4.7 5.2 5.1 4.1 3.9
6.5 6.5 7.0 7.2 6.5 6.6 6.5 6.5 6.5 6.5 6.5 6.5 6.5 6.5 6.5 6.5 6.6 6.9 7.2 7.7 8.3 8.6 8.8 8.9 9.0 9.2 9.4 9.5 9.6 9.7 9.7 9.7 9.8 9.7 9.6 9.7 9.5 9.3 9.3 7.0 5.1 5.2 5.0 3.4
6.5 6.5 6.5 6.9 6.5 6.5 6.5 6.5 6.5 6.5 6.5 6.5 6.5 6.5 6.5 6.5 7.4 7.7 7.9 8.1 8.4 8.5 8.8 8.9 9.0 9.2 9.3 9.4 9.5 9.5 9.5 9.6 9.7 9.7 9.6 9.8 9.8 9.9 9.9 9.6 7.0 5.9 7.1 6.2
6.5 6.5 6.7 6.9 7.0 6.7 6.5 6.5 6.5 6.5 6.5 6.5 6.5 6.5 6.5 6.7 6.8 7.3 7.6 8.0 8.1 8.4 8.7 8.8 9.0 9.2 9.4 9.5 9.5 9.5 9.6 9.7 9.7 9.5 9.6 9.6 9.6 9.6 9.7 9.6 9.3 7.7 6.3 5.9
6.5 6.5 6.5 6.5 7.0 7.0 6.5 6.6 6.5 6.5 6.5 6.5 6.5 6.5 6.5 6.5 6.5 6.8 7.2 7.6 8.0 8.4 8.6 8.8 9.1 9.1 9.5 9.6 9.7 9.6 9.7 9.6 9.7 9.6 9.2 8.8 8.9 8.8 9.5 9.7 9.6 9.3 9.3 7.3
6.5 6.5 6.5 6.5 6.5 6.5 6.5 6.5 6.5 6.5 6.5 6.5 6.5 6.5 6.5 6.5 6.5 6.5 7.3 7.8 8.0 8.3 8.6 8.9 9.1 9.2 9.5 9.6 9.7 9.6 9.7 9.6 9.6 9.6 9.6 7.6 7.2 7.5 8.1 9.4 9.7 9.6 9.5 9.5
6.6 6.5 6.5 6.5 6.5 6.9 6.5 6.5 6.5 6.5 6.5 6.5 6.5 6.5 6.7 6.8 7.1 7.3 7.4 7.8 8.2 8.5 8.7 8.9 9.0 9.2 9.3 9.4 9.6 9.6 9.6 9.6 9.7 9.8 9.6 9.3 8.0 7.2 7.2 7.3 8.4 9.5 9.6 9.4
6.7 6.5 6.5 6.5 6.5 6.5 6.5 6.5 6.5 6.5 6.5 6.5 6.5 6.5 7.0 7.1 7.1 7.5 7.5 7.8 8.1 8.4 8.6 8.8 8.9 9.0 9.2 9.3 9.5 9.6 9.7 9.7 9.8 9.8 9.7 9.5 9.0 8.1 7.5 7.3 7.0 7.3 9.4 9.6
7.1 6.5 6.5 6.5 6.5 6.5 6.5 6.5 6.5 6.5 6.5 6.5 6.5 6.5 6.5 6.5 6.5 7.2 7.6 7.9 8.1 8.4 8.5 8.7 8.8 8.9 9.2 9.3 9.4 9.5 9.6 9.7 9.7 9.8 9.6 9.4 8.8 8.5 9.4 7.9 7.0 6.9 7.5 9.5
6.7 6.5 6.5 6.5 6.5 6.5 6.5 6.5 6.5 6.5 6.5 6.5 6.5 6.5 6.5 6.5 6.8 7.4 7.8 8.0 8.0 8.2 8.3 8.6 8.7 8.9 9.1 9.2 9.4 9.5 9.6 9.7 9.8 9.7 9.6 9.5 9.6 9.5 9.4 8.5 7.3 6.7 6.8 8.2
6.9 6.5 6.5 6.5 6.5 6.5 6.5 6.5 6.5 6.5 6.5 6.5 6.5 6.5 7.2 7.6 7.7 7.6 7.7 7.8 7.8 8.1 8.3 8.6 8.8 8.9 9.1 9.2 9.3 9.4 9.5 9.6 9.7 9.6 9.5 9.6 9.6 9.6 9.7 9.6 9.5 8.9 6.8 7.7
6.5 6.5 6.5 6.5 6.5 6.5 6.5 6.5 6.5 6.5 6.5 6.5 6.5 6.5 7.1 6.9 7.2 7.4 7.7 7.9 7.9 8.2 8.4 8.6 8.8 9.0 9.1 9.3 9.4 9.4 9.6 9.7 9.6 9.6 9.7 9.6 9.6 9.4 9.5 9.6 9.6 9.4 7.7 6.8
6.5 6.5 6.5 6.5 6.5 6.5 6.5 6.5 6.5 6.5 6.5 6.5 6.5 6.5 7.2 7.4 7.8 7.9 8.3 8.1 8.2 8.4 8.5 8.7 9.0 9.1 9.3 9.5 9.6 9.6 9.7 9.7 9.6 9.5 9.5 9.6 9.5 9.4 9.5 9.5 9.5 8.8 7.9 5.8
7.0 6.5 6.5 6.5 6.5 6.5 6.5 6.5 6.5 6.5 6.5 6.8 6.5 7.1 7.5 7.8 7.9 7.6 8.6 8.6 8.5 8.7 8.8 9.0 9.2 9.2 9.4 9.5 9.6 9.6 9.6 9.6 9.5 9.4 9.4 9.4 8.9 9.4 9.4 9.4 9.4 8.9 5.9 6.4
6.8 6.6 6.5 6.5 6.5 6.5 6.5 6.5 7.4 7.1 6.5 7.1 7.2 7.1 7.2 7.5 6.5 6.9 8.3 8.6 8.8 9.0 9.1 9.1 9.3 9.3 9.3 9.4 9.6 9.4 9.5 9.5 9.4 9.4 7.9 8.4 9.0 9.1 9.4 9.2 9.4 9.6 9.2 9.0
6.5 6.5 6.5 6.5 6.5 6.5 6.5 7.1 7.5 6.5 6.5 7.3 7.5 7.4 7.4 6.9 7.6 8.3 8.7 8.8 9.1 9.2 9.2 9.3 9.3 9.2 9.4 9.6 9.5 9.2 9.5 9.3 9.5 8.6 7.8 7.9 9.4 9.4 9.2 9.4 9.6 9.6 9.5 9.0
6.5 6.5 6.5 6.5 6.5 6.5 7.3 7.0 6.5 7.0 7.6 7.7 7.8 7.9 7.8 8.1 8.3 8.5 8.8 8.8 9.0 9.1 9.2 9.3 9.2 9.3 9.5 9.6 9.5 9.3 9.3 9.6 8.7 7.9 7.6 8.8 9.6 9.6 9.8 9.5 9.6 9.6 9.3 7.6
6.5 6.5 6.5 6.5 6.5 7.1 7.7 7.5 8.1 8.2 7.9 8.0 8.1 8.3 8.3 8.3 8.4 8.6 8.6 8.9 9.0 9.2 9.4 9.5 9.3 9.3 9.4 9.5 9.5 9.1 9.3 8.7 7.8 8.1 9.1 9.3 9.3 9.6 9.8 9.6 9.5 9.3 8.7 8.5
6.5 7.3 6.5 6.5 6.7 7.1 7.6 8.2 8.4 8.5 8.3 8.6 8.6 8.7 8.7 8.4 8.6 8.6 8.8 9.0 9.1 9.2 9.2 9.4 9.3 9.2 9.1 9.4 9.4 9.2 8.6 7.8 8.0 8.8 9.3 9.4 9.5 9.1 9.7 9.7 9.6 9.4 9.1 8.8
6.8 7.0 6.5 6.5 7.0 7.4 7.8 8.1 8.4 8.6 8.8 8.7 8.8 8.8 8.7 8.7 8.7 8.8 8.8 9.0 9.1 9.2 9.4 9.4 9.2 9.1 9.1 9.4 9.3 9.5 9.2 8.4 8.5 9.0 9.2 9.4 9.6 9.5 9.5 9.7 9.6 9.5 9.5 8.8
7.4 6.6 6.5 6.5 7.4 7.4 7.7 8.5 8.8 8.5 8.5 8.7 8.7 8.7 8.9 9.0 8.8 9.0 9.0 9.2 9.2 9.2 9.3 9.1 9.1 9.1 9.1 9.4 9.4 9.4 9.4 8.5 8.1 8.5 9.4 9.3 9.3 9.5 9.5 9.5 9.4 8.5 6.4 6.3
Wind_Speed
21 16 14 14 13 11 10 9 9 6 6 1 5 7 6 6 7 9 11 12 14 14 15 16 16 17 17 17 18 18 18 18 14 11 11 6 4 9 7 13 17 19 23 21
13 19 11 9 8 9 7 8 7 4 6 2 2 6 5 5 6 8 10 11 13 15 16 18 19 18 18 18 18 19 18 17 14 12 10 7 8 7 8 14 15 19 22 22
14 7 6 8 7 8 11 8 4 3 3 3 1 5 3 4 3 6 9 10 12 13 15 17 17 18 17 19 19 17 18 18 15 16 12 11 8 8 6 4 7 13 22 23
13 7 7 7 9 5 5 6 1 2 5 1 3 1 5 2 3 8 10 11 12 14 14 15 16 17 17 16 16 18 17 16 15 19 14 16 10 10 9 7 8 11 20 22
5 9 9 8 6 8 5 4 1 2 3 6 5 4 8 3 2 5 8 11 13 14 14 15 14 14 15 15 15 16 17 16 16 16 15 12 13 11 10 10 11 11 12 18
11 4 8 5 1 5 5 3 4 4 2 3 3 5 7 2 4 3 4 9 12 14 14 13 12 12 13 14 14 14 17 17 16 16 16 15 15 15 12 12 11 9 8 8
7 7 3 7 1 1 2 3 1 2 3 2 2 5 7 3 5 7 8 10 13 15 14 14 13 12 12 14 14 14 16 16 17 16 16 15 15 15 15 13 11 14 9 9
3 5 5 6 5 3 7 4 2 3 2 2 2 2 3 6 7 8 10 12 16 16 15 14 11 10 11 12 13 14 15 16 16 17 17 15 15 11 11 13 11 10 10 9
4 5 4 7 7 4 3 4 2 1 0 4 2 2 5 2 4 7 11 15 17 15 14 12 11 9 10 11 12 12 14 15 16 16 15 15 14 15 13 15 12 10 13 12
2 4 1 3 2 9 5 3 2 2 1 3 4 5 1 3 7 10 12 12 11 12 12 12 11 9 9 10 11 12 13 14 15 15 15 14 15 15 15 13 14 14 13 14
5 1 5 3 2 2 3 3 2 1 2 2 4 2 3 2 6 10 10 10 10 10 11 12 10 9 9 9 10 11 13 14 15 15 15 15 15 15 14 14 14 14 15 13
2 2 3 2 2 1 1 3 4 3 2 3 4 4 6 1 5 6 7 7 9 9 10 11 8 8 10 8 9 11 13 14 14 14 15 14 15 15 15 15 15 15 15 16
6 1 3 5 4 3 5 3 4 3 1 9 3 2 8 4 6 7 7 7 9 10 10 9 7 8 10 9 9 10 11 13 13 14 14 14 14 15 15 16 16 15 16 15
3 3 3 3 2 3 4 6 9 6 5 5 11 13 9 10 8 9 8 8 9 11 10 9 8 8 9 9 8 9 11 12 13 14 14 14 14 14 14 15 15 15 15 15
2 2 2 6 9 10 13 10 14 15 15 9 8 12 12 11 11 12 9 10 10 11 10 10 9 9 9 9 8 8 10 11 12 13 13 13 13 14 14 14 15 15 15 14
4 2 2 4 6 11 17 17 17 20 22 23 22 25 20 16 13 12 12 11 11 11 11 11 10 11 11 10 8 8 9 10 10 11 12 13 13 13 13 13 14 14 15 15
6 5 3 2 2 9 12 18 19 18 17 15 19 23 14 14 13 11 12 11 11 12 11 11 11 11 10 9 7 9 10 10 10 11 11 12 13 14 14 14 13 14 14 14
6 7 3 2 4 5 3 2 4 11 14 15 19 18 16 15 13 11 12 12 12 13 10 10 9 11 10 8 8 8 10 10 10 11 11 12 12 13 14 14 14 14 12 13
7 6 3 3 5 13 10 5 10 9 12 9 16 17 17 16 14 15 15 12 11 11 9 9 8 8 9 8 8 9 11 11 11 11 12 12 12 13 13 13 13 12 12 13
8 8 5 2 4 4 4 3 1 2 11 3 8 12 13 12 11 11 7 6 9 10 10 9 9 8 8 8 8 10 11 11 11 11 12 12 11 12 13 13 13 11 11 13
6 5 11 9 5 7 6 7 1 5 2 2 2 5 8 10 11 14 14 14 14 13 13 11 9 9 9 7 7 10 11 11 10 10 11 12 11 12 11 12 12 11 12 12
9 8 5 6 5 7 5 2 5 7 4 6 9 10 11 14 16 18 18 18 18 18 16 14 11 10 8 7 7 10 10 8 9 10 11 11 11 10 10 13 12 12 12 12
5 5 3 8 5 2 1 10 9 10 13 16 17 16 15 18 20 21 19 20 20 20 17 14 12 10 7 7 7 9 8 8 9 11 11 11 12 12 11 12 12 10 11 10
7 5 4 2 7 10 11 13 14 15 14 15 15 19 20 21 21 20 19 17 16 17 16 13 12 11 9 7 7 8 8 9 10 11 12 11 12 11 12 9 9 9 9 10
2 5 7 11 12 9 10 8 17 18 19 20 19 19 20 21 22 21 19 19 17 17 15 12 12 9 8 6 7 8 8 9 11 11 11 11 10 12 12 11 9 10 11 9
7 7 5 4 10 10 15 19 22 20 20 20 20 21 20 19 20 20 19 18 17 16 14 11 10 8 7 7 7 8 8 9 11 11 10 9 10 10 11 11 11 7 11 13
Wind_Direction
48 81 63 62 60 83 102 107 116 87 30 316 78 97 90 69 46 41 34 30 28 25 22 14 14 14 11 12 3 1 359 359 353 353 355 345 328 325 249 245 225 219 230 230
87 60 67 71 71 92 97 105 94 96 25 275 63 107 92 57 57 42 25 33 26 18 15 13 9 12 11 11 8 1 358 359 357 352 342 331 309 285 283 252 225 223 223 225
82 80 77 78 84 101 64 54 59 32 23 80 179 157 141 82 72 27 28 26 30 26 12 8 8 9 8 11 7 3 1 358 0 354 345 341 336 331 323 327 280 226 229 224
70 68 66 82 66 340 94 15 296 232 240 87 312 99 171 77 87 40 34 27 21 16 16 10 3 4 8 9 6 1 359 2 2 356 351 347 343 337 329 319 303 319 222 228
102 74 49 61 39 354 46 322 279 202 157 184 58 253 104 211 224 29 33 27 19 14 7 4 2 358 356 1 1 360 358 360 3 0 357 348 346 344 331 325 322 329 343 247
99 87 39 35 70 15 331 174 149 167 214 204 88 330 126 33 340 287 341 2 2 1 355 348 356 352 352 352 354 357 356 359 359 359 358 353 346 338 340 340 334 337 327 318
120 63 79 20 223 355 50 197 169 204 207 31 88 278 38 309 274 290 315 325 338 341 343 333 342 347 349 352 349 349 354 354 357 356 355 355 350 341 336 344 336 334 336 340
167 162 22 8 34 12 44 16 30 282 291 350 195 242 93 306 278 276 282 303 322 328 328 326 331 335 344 353 353 350 349 349 355 354 353 350 351 348 340 341 337 328 334 326
139 108 118 58 53 319 56 61 20 130 52 263 166 139 228 12 323 311 325 322 327 330 334 325 329 335 340 352 358 351 348 349 351 352 350 348 346 348 345 341 338 335 330 327
120 122 125 98 323 55 35 96 187 73 254 262 220 255 265 14 343 341 338 342 340 341 340 340 332 332 336 345 353 352 351 350 348 349 348 346 343 342 342 342 343 337 332 329
137 195 141 188 201 153 156 152 107 131 291 288 301 168 130 32 347 344 346 348 343 339 338 334 329 333 328 337 350 353 352 348 347 347 346 343 341 340 339 340 342 342 333 334
74 87 141 96 131 280 273 198 197 240 158 256 301 288 140 89 334 338 341 347 346 340 339 338 336 330 340 339 345 351 351 348 345 342 342 341 338 338 338 336 338 340 338 333
168 143 142 162 161 184 239 178 87 102 253 224 236 261 172 210 285 299 307 327 330 329 334 335 324 327 336 332 338 346 351 347 342 340 339 339 339 338 336 336 336 336 336 336
145 177 252 301 66 118 205 185 196 197 209 239 228 271 231 278 294 303 293 298 319 317 319 319 309 313 323 321 323 333 342 344 341 339 339 338 337 336 333 332 333 336 336 332
198 213 237 260 252 243 258 219 205 209 220 228 269 268 268 281 295 301 297 297 296 306 320 321 314 313 315 318 309 321 334 337 338 333 333 336 334 330 330 332 331 333 336 333
169 219 241 272 257 261 266 259 238 230 241 246 256 272 277 281 278 277 274 279 288 302 311 321 313 310 312 315 306 321 330 333 329 330 328 329 330 331 332 331 328 331 334 335
175 172 184 252 316 301 272 249 235 236 239 239 246 253 273 277 259 261 275 280 291 298 297 310 318 316 314 309 307 307 323 326 327 328 328 328 328 328 332 330 327 332 335 334
190 171 185 274 259 242 77 170 238 242 256 249 246 259 256 265 261 289 274 268 280 291 282 300 313 317 312 307 303 314 316 319 320 322 325 326 326 324 327 327 329 331 336 332
199 186 207 258 242 298 277 206 217 219 280 232 251 254 260 261 267 277 262 260 282 288 286 289 299 303 298 300 308 306 307 316 317 322 323 324 322 319 321 324 326 326 328 322
205 230 222 192 252 267 87 115 165 246 274 22 243 254 264 277 255 265 292 305 276 269 268 268 283 292 283 286 297 299 306 316 315 325 320 317 316 314 317 319 319 322 319 317
168 205 219 220 263 277 300 185 282 255 357 14 260 282 291 274 273 298 304 286 275 276 278 267 257 269 279 277 284 293 304 309 326 315 313 311 311 314 314 313 315 317 318 319
175 175 193 202 233 256 180 163 228 12 333 316 300 294 291 291 290 287 283 281 280 278 279 253 247 260 262 270 282 293 299 317 316 312 307 308 310 312 307 313 314 316 320 315
218 213 201 201 224 66 206 290 302 306 299 299 296 295 293 291 289 287 285 286 283 280 281 264 248 257 250 256 276 286 297 305 308 304 304 307 307 306 311 308 313 315 317 312
220 205 226 209 254 273 300 302 295 297 297 301 293 290 291 289 287 282 281 279 283 283 275 266 247 246 251 258 265 275 292 299 303 301 305 306 305 316 303 311 305 305 309 308
3 173 244 265 280 312 289 317 314 309 302 297 294 291 289 290 286 283 282 277 280 284 278 259 242 242 252 259 263 276 287 296 297 299 299 300 300 307 307 304 303 304 302 300
220 250 244 274 348 325 309 316 311 306 302 297 297 294 290 288 285 283 279 276 279 278 269 237 236 241 251 251 264 278 289 295 296 295 296 300 300 298 297 301 304 282 254 261